Location: Lake Arresoe
(56.0000°N, 12.5000°E)
Time: 08:09:49
(UTC+02:00)

Cosmos 1674 - Pass Details

Date: 31 July 2021
Orbit: 491 x 516 km, 82.5° (Epoch: 26 September)

Event Time Altitude Azimuth Distance (km) Brightness Sun altitude
Rises 04:04:07 0° 343° (NNW) 2,656 6.8 -7.8°
Reaches altitude 10° 04:06:20 10° 336° (NNW) 1,763 5.8 -7.6°
Maximum altitude 04:09:58 40° 266° (W) 773 3.3 -7.3°
Drops below altitude 10° 04:13:34 10° 196° (SSW) 1,745 4.8 -6.9°
Enters shadow 04:14:30 - 192° (SSW) 2,109 5.3 -6.9°
